Flight Information

DEPARTURE
SANTA MONICA, CA
Elevation:
169
Runways:
H1 - 40x40 - ASPH-G
3/21 - 3500x150 - ASPH-G
Active PE Departure:
21
Current PE ATIS:
V
Altimeter:
30.14
Remarks:
ATIS:
119.15 310-450-4620
Ground:
121.9
Tower:
120.1
DESTINATION
,
Elevation:
TPA:
1000 (est.)


6795.3 NM73° True-14° Var59° HDG

Flight Plan:
(click to file on line)

1. Type
2. Aircraft Identification
3. Aircraft Type / Special Equipment
4. True Airspeed
kts
5. Departure Airport
(ICAO code)
6. Arriving Airport
(ICAO code)
7. Cruising Altitude
ft
8. Alternate Airport
(ICAO code)
9. Route of Flight
10. Remarks


00:00:00 Departure ATIS: Destination ATIS:

Clearance Limit:
Route:
Altitude: Expect in minutes
Frequency:
Transponder: (7500 Hijack / 7600 Lost Comms / 7700 Emergency)


KSMO 100551Z AUTO 00000KT 10SM FEW016 10/05 A3014 RMK AO2 SLP204 T01000050 10139 20100 51010
Time: 2022-12-10T05:51:00Z
1670653276
Winds: calm
Visibility: 10.0 sm
Clouds (AGL): FEW 1600
Temperature: 10.0 C
Dew Point: 5.0 C
Pressure: 30.138779 in Hgbr


Notes:

Data extracted from FAA Digital Chart Supplement. Effective: 0901Z Thursday, 27 JAN 2022 to 0900z Thursday, 24 MAR 2022
Current ATIS data is provided courtisy of PilotEdge.